time, Switch, Flow(0), Analog(2)
yyyy/mm/dd HH:MM:SS.fff, True=FILTERED|False=TOTAL, L/min, V
2023/06/06 11:00:02.723, True, 4.311, 0.133364
2023/06/06 11:00:03.227, True, 3.982, 0.135653
2023/06/06 11:00:03.722, True, 4.041, 0.136873
2023/06/06 11:00:04.227, True, 3.316, 0.136416
2023/06/06 11:00:04.731, True, 3.647, 0.134890
2023/06/06 11:00:05.227, True, 3.034, 0.134585
2023/06/06 11:00:05.731, True, 3.315, 0.135729
2023/06/06 11:00:06.227, True, 3.371, 0.135500
2023/06/06 11:00:06.731, True, 3.315, 0.138323
2023/06/06 11:00:07.235, True, 3.315, 0.133211
2023/06/06 11:00:07.731, True, 3.033, 0.134813
2023/06/06 11:00:08.235, True, 2.991, 0.135882
2023/06/06 11:00:08.738, True, 3.309, 0.135348
2023/06/06 11:00:09.243, True, 3.316, 0.135653
2023/06/06 11:00:09.739, True, 3.377, 0.134356
2023/06/06 11:00:10.243, True, 3.309, 0.135729
2023/06/06 11:00:10.739, True, 3.370, 0.134585
2023/06/06 11:00:11.243, True, 2.985, 0.136110
2023/06/06 11:00:11.747, True, 3.315, 0.135119
2023/06/06 11:00:12.251, True, 2.985, 0.137560
2023/06/06 11:00:12.747, True, 3.369, 0.136416
2023/06/06 11:00:13.251, True, 3.316, 0.135500
2023/06/06 11:00:13.747, True, 3.032, 0.136110
2023/06/06 11:00:14.251, True, 3.320, 0.136034
2023/06/06 11:00:14.755, True, 3.313, 0.134585
2023/06/06 11:00:15.250, True, 3.032, 0.135500
2023/06/06 11:00:15.755, True, 3.316, 0.137331
2023/06/06 11:00:16.259, True, 2.984, 0.133593
2023/06/06 11:00:16.755, True, 3.371, 0.134813
2023/06/06 11:00:17.259, True, 3.314, 0.136187
2023/06/06 11:00:17.763, True, 3.316, 0.135271
2023/06/06 11:00:18.259, True, 3.371, 0.135271
2023/06/06 11:00:18.762, True, 2.987, 0.135729
2023/06/06 11:00:19.267, True, 3.312, 0.136034
2023/06/06 11:00:19.771, True, 3.316, 0.135653
2023/06/06 11:00:20.267, True, 3.037, 0.134279
2023/06/06 11:00:20.771, True, 3.312, 0.133822
2023/06/06 11:00:21.275, True, 2.984, 0.133288
2023/06/06 11:00:21.771, True, 3.375, 0.135271
2023/06/06 11:00:22.274, True, 3.311, 0.136416
2023/06/06 11:00:22.779, True, 2.985, 0.134661
2023/06/06 11:00:23.275, True, 3.374, 0.136721
2023/06/06 11:00:23.779, True, 3.311, 0.135805
2023/06/06 11:00:24.283, True, 3.322, 0.138323
2023/06/06 11:00:24.779, True, 3.027, 0.137484
2023/06/06 11:00:25.283, True, 3.316, 0.136263
2023/06/06 11:00:25.787, True, 3.320, 0.138094
2023/06/06 11:00:26.282, True, 3.028, 0.136187
2023/06/06 11:00:26.787, True, 2.989, 0.137102
2023/06/06 11:00:27.291, True, 2.980, 0.137026
2023/06/06 11:00:27.787, True, 3.370, 0.137560
2023/06/06 11:00:28.291, True, 2.984, 0.137407
2023/06/06 11:00:28.787, True, 3.370, 0.138705
2023/06/06 11:00:29.291, True, 3.316, 0.136645
2023/06/06 11:00:29.795, True, 3.316, 0.136873
2023/06/06 11:00:30.291, True, 3.032, 0.140688
2023/06/06 11:00:30.795, True, 3.316, 0.138018
2023/06/06 11:00:31.299, True, 3.316, 0.140230
2023/06/06 11:00:31.795, True, 3.369, 0.138247
2023/06/06 11:00:32.299, True, 2.985, 0.138628
2023/06/06 11:00:32.803, True, 3.316, 0.137179
2023/06/06 11:00:33.299, True, 3.370, 0.137636
2023/06/06 11:00:33.802, True, 3.315, 0.138628
2023/06/06 11:00:34.307, True, 3.316, 0.139849
2023/06/06 11:00:34.803, True, 3.033, 0.138933
2023/06/06 11:00:35.307, True, 3.316, 0.138170
2023/06/06 11:00:35.811, True, 2.988, 0.141070
2023/06/06 11:00:36.307, True, 3.365, 0.138094
2023/06/06 11:00:36.811, True, 2.984, 0.138476
2023/06/06 11:00:37.315, True, 3.322, 0.139162
2023/06/06 11:00:37.811, True, 3.027, 0.139162
2023/06/06 11:00:38.315, True, 3.316, 0.138399
2023/06/06 11:00:38.819, True, 2.985, 0.139773
2023/06/06 11:00:39.323, True, 3.315, 0.141985
2023/06/06 11:00:39.819, True, 3.370, 0.139467
2023/06/06 11:00:40.323, True, 3.316, 0.141299
2023/06/06 11:00:40.827, True, 2.984, 0.140612
2023/06/06 11:00:41.323, True, 3.032, 0.141680
2023/06/06 11:00:41.827, True, 3.318, 0.141146
2023/06/06 11:00:42.331, True, 2.983, 0.141146
2023/06/06 11:00:42.827, True, 3.036, 0.141527
2023/06/06 11:00:43.330, True, 3.314, 0.141299
2023/06/06 11:00:43.835, True, 3.314, 0.139086
2023/06/06 11:00:44.331, True, 3.033, 0.139620
2023/06/06 11:00:44.835, True, 3.316, 0.140230
2023/06/06 11:00:45.330, True, 3.370, 0.137102
2023/06/06 11:00:45.835, True, 3.314, 0.140459
2023/06/06 11:00:46.339, True, 3.317, 0.137255
2023/06/06 11:00:46.842, True, 2.983, 0.140917
2023/06/06 11:00:47.339, True, 3.375, 0.139239
2023/06/06 11:00:47.843, True, 2.981, 0.138857
2023/06/06 11:00:48.346, True, 3.315, 0.139315
2023/06/06 11:00:48.842, True, 3.032, 0.139620
2023/06/06 11:00:49.347, True, 2.986, 0.139010
2023/06/06 11:00:49.851, True, 3.315, 0.141985
2023/06/06 11:00:50.355, True, 2.986, 0.140917
2023/06/06 11:00:50.851, True, 3.371, 0.140993
2023/06/06 11:00:51.354, True, 2.982, 0.138857
2023/06/06 11:00:51.859, True, 3.319, 0.140002
2023/06/06 11:00:52.355, True, 3.033, 0.140764
2023/06/06 11:00:52.858, True, 3.312, 0.139925
2023/06/06 11:00:53.363, True, 3.320, 0.138476
2023/06/06 11:00:53.859, True, 3.366, 0.139773
2023/06/06 11:00:54.363, True, 2.984, 0.138933
2023/06/06 11:00:54.867, True, 3.316, 0.139162
2023/06/06 11:00:55.363, True, 3.370, 0.140230
2023/06/06 11:00:55.866, True, 3.316, 0.139239
2023/06/06 11:00:56.371, True, 3.321, 0.138552
2023/06/06 11:00:56.867, True, 3.031, 0.141146
2023/06/06 11:00:57.370, True, 3.312, 0.141070
2023/06/06 11:00:57.875, True, 2.985, 0.139010
2023/06/06 11:00:58.371, True, 3.033, 0.138933
2023/06/06 11:00:58.874, True, 3.315, 0.138857
2023/06/06 11:00:59.379, True, 3.317, 0.136721
2023/06/06 11:00:59.875, True, 3.370, 0.139773
2023/06/06 11:01:00.379, True, 2.984, 0.140383
2023/06/06 11:01:00.883, True, 3.317, 0.137255
2023/06/06 11:01:01.387, True, 3.315, 0.137026
2023/06/06 11:01:01.882, True, 3.032, 0.140078
2023/06/06 11:01:02.387, True, 3.322, 0.139544
2023/06/06 11:01:02.883, True, 3.365, 0.139620
2023/06/06 11:01:03.387, True, 2.984, 0.137865
2023/06/06 11:01:03.891, True, 3.317, 0.140154
2023/06/06 11:01:04.387, True, 3.032, 0.140459
2023/06/06 11:01:04.891, True, 2.984, 0.138094
2023/06/06 11:01:05.395, True, 3.316, 0.139239
2023/06/06 11:01:05.890, True, 3.372, 0.138399
2023/06/06 11:01:06.395, True, 3.313, 0.138399
2023/06/06 11:01:06.899, True, 3.316, 0.137026
2023/06/06 11:01:07.395, True, 3.033, 0.138628
2023/06/06 11:01:07.898, True, 3.322, 0.138781
2023/06/06 11:01:08.403, True, 3.310, 0.138018
2023/06/06 11:01:08.899, True, 3.370, 0.137026
2023/06/06 11:01:09.402, True, 2.985, 0.135195
2023/06/06 11:01:09.898, True, 3.369, 0.139239
2023/06/06 11:01:10.403, True, 3.316, 0.138323
2023/06/06 11:01:10.907, True, 3.317, 0.139239
2023/06/06 11:01:11.402, True, 3.032, 0.139925
2023/06/06 11:01:11.907, True, 3.316, 0.138018
2023/06/06 11:01:12.410, True, 3.319, 0.139010
2023/06/06 11:01:12.915, True, 2.986, 0.138628
2023/06/06 11:01:13.410, True, 3.364, 0.140764
2023/06/06 11:01:13.914, True, 2.984, 0.139620
2023/06/06 11:01:14.418, True, 2.984, 0.139162
2023/06/06 11:01:14.914, True, 3.370, 0.137636
2023/06/06 11:01:15.418, True, 2.985, 0.139925
2023/06/06 11:01:15.923, True, 2.984, 0.138552
2023/06/06 11:01:16.418, True, 3.372, 0.137942
2023/06/06 11:01:16.922, True, 2.982, 0.139162
2023/06/06 11:01:17.426, True, 3.318, 0.136950
2023/06/06 11:01:17.922, True, 3.367, 0.140383
2023/06/06 11:01:18.427, True, 3.317, 0.138705
2023/06/06 11:01:18.931, True, 3.317, 0.137865
2023/06/06 11:01:19.427, True, 3.035, 0.138170
2023/06/06 11:01:19.930, True, 3.312, 0.138857
2023/06/06 11:01:20.434, True, 3.318, 0.138323
2023/06/06 11:01:20.931, True, 3.037, 0.136110
2023/06/06 11:01:21.435, True, 3.309, 0.139849
2023/06/06 11:01:21.939, True, 2.987, 0.137636
2023/06/06 11:01:22.443, True, 3.314, 0.138781
2023/06/06 11:01:22.939, True, 3.031, 0.139086
2023/06/06 11:01:23.443, True, 3.323, 0.137407
2023/06/06 11:01:23.938, True, 3.029, 0.138781
2023/06/06 11:01:24.443, True, 3.648, 0.138399
2023/06/06 11:01:24.947, True, 2.985, 0.138628
2023/06/06 11:01:25.442, True, 3.370, 0.139696
2023/06/06 11:01:25.947, True, 3.315, 0.138705
2023/06/06 11:01:26.451, True, 3.316, 0.137484
2023/06/06 11:01:26.946, True, 3.031, 0.137484
2023/06/06 11:01:27.450, True, 2.988, 0.139467
2023/06/06 11:01:27.954, True, 3.314, 0.137560
2023/06/06 11:01:28.459, True, 3.315, 0.139849
2023/06/06 11:01:28.955, True, 3.035, 0.137942
2023/06/06 11:01:29.458, True, 3.317, 0.136034
2023/06/06 11:01:29.962, True, 3.312, 0.138399
2023/06/06 11:01:30.459, True, 3.032, 0.136797
2023/06/06 11:01:30.962, True, 3.316, 0.136339
2023/06/06 11:01:31.467, True, 3.320, 0.140002
2023/06/06 11:01:31.971, True, 3.312, 0.139239
2023/06/06 11:01:32.467, True, 3.032, 0.136034
2023/06/06 11:01:32.971, True, 3.316, 0.137407
2023/06/06 11:01:33.475, True, 3.318, 0.136110
2023/06/06 11:01:33.971, True, 3.370, 0.137560
2023/06/06 11:01:34.475, True, 3.314, 0.138476
2023/06/06 11:01:34.979, True, 2.990, 0.135348
2023/06/06 11:01:35.482, True, 3.310, 0.137636
2023/06/06 11:01:35.978, True, 3.035, 0.135500
2023/06/06 11:01:36.483, True, 2.982, 0.135729
2023/06/06 11:01:36.987, True, 3.317, 0.135576
2023/06/06 11:01:37.483, True, 3.032, 0.137026
2023/06/06 11:01:37.987, True, 3.317, 0.136645
2023/06/06 11:01:38.491, True, 3.315, 0.139315
2023/06/06 11:01:38.987, True, 3.371, 0.138933
2023/06/06 11:01:39.491, True, 3.315, 0.138399
2023/06/06 11:01:39.995, True, 3.316, 0.136034
2023/06/06 11:01:40.491, True, 3.372, 0.137331
2023/06/06 11:01:40.995, True, 3.313, 0.139391
2023/06/06 11:01:41.499, True, 2.985, 0.137865
2023/06/06 11:01:41.995, True, 3.369, 0.136339
2023/06/06 11:01:42.499, True, 3.316, 0.136721
2023/06/06 11:01:42.995, True, 3.370, 0.140383
2023/06/06 11:01:43.499, True, 3.316, 0.138018
2023/06/06 11:01:44.002, True, 3.316, 0.137942
2023/06/06 11:01:44.506, True, 2.985, 0.139010
2023/06/06 11:01:45.002, True, 3.368, 0.136416
2023/06/06 11:01:45.506, True, 3.317, 0.138323
2023/06/06 11:01:46.002, True, 3.368, 0.135729
2023/06/06 11:01:46.507, True, 3.317, 0.134508
2023/06/06 11:01:47.011, True, 3.321, 0.136263
2023/06/06 11:01:47.515, True, 2.980, 0.137407
2023/06/06 11:01:48.010, True, 3.033, 0.137560
2023/06/06 11:01:48.514, True, 3.316, 0.138247
2023/06/06 11:01:49.011, True, 3.033, 0.137331
2023/06/06 11:01:49.514, True, 2.984, 0.136034
2023/06/06 11:01:50.019, True, 3.316, 0.137102
2023/06/06 11:01:50.515, True, 3.032, 0.139162
2023/06/06 11:01:51.019, True, 3.316, 0.137102
2023/06/06 11:01:51.523, True, 3.316, 0.138552
2023/06/06 11:01:52.019, True, 3.032, 0.138247
2023/06/06 11:01:52.522, True, 3.316, 0.135042
2023/06/06 11:01:53.026, True, 3.648, 0.137789
2023/06/06 11:01:53.522, True, 3.032, 0.135729
2023/06/06 11:01:54.026, True, 3.316, 0.136263
2023/06/06 11:01:54.531, True, 2.984, 0.136034
2023/06/06 11:01:55.027, True, 3.369, 0.138399
2023/06/06 11:01:55.531, True, 3.315, 0.137179
2023/06/06 11:01:56.035, True, 3.317, 0.135119
2023/06/06 11:01:56.530, True, 3.032, 0.135729
2023/06/06 11:01:57.035, True, 3.317, 0.136187
2023/06/06 11:01:57.538, True, 3.319, 0.138323
2023/06/06 11:01:58.035, True, 3.365, 0.135882
2023/06/06 11:01:58.539, True, 2.984, 0.137636
2023/06/06 11:01:59.042, True, 3.316, 0.135805
2023/06/06 11:01:59.539, True, 3.033, 0.136034
2023/06/06 11:02:00.042, True, 2.990, 0.138323
2023/06/06 11:02:00.546, True, 2.979, 0.137560
2023/06/06 11:02:01.042, True, 3.368, 0.138705
2023/06/06 11:02:01.547, True, 2.986, 0.136187
2023/06/06 11:02:02.051, True, 3.314, 0.137560
2023/06/06 11:02:02.546, True, 3.036, 0.136721
2023/06/06 11:02:03.050, True, 3.312, 0.137865
2023/06/06 11:02:03.554, True, 3.317, 0.139315
2023/06/06 11:02:04.051, True, 3.374, 0.135882
2023/06/06 11:02:04.554, True, 2.980, 0.136110
2023/06/06 11:02:05.059, True, 3.316, 0.135958
2023/06/06 11:02:05.555, True, 3.033, 0.136492
2023/06/06 11:02:06.059, True, 3.318, 0.137102
2023/06/06 11:02:06.563, True, 3.314, 0.138705
2023/06/06 11:02:07.059, True, 3.033, 0.137255
2023/06/06 11:02:07.562, True, 2.984, 0.138628
2023/06/06 11:02:08.067, True, 3.317, 0.137407
2023/06/06 11:02:08.562, True, 3.032, 0.135500
2023/06/06 11:02:09.067, True, 3.317, 0.137102
2023/06/06 11:02:09.571, True, 2.984, 0.137102
2023/06/06 11:02:10.074, True, 3.319, 0.136645
2023/06/06 11:02:10.571, True, 3.367, 0.138323
2023/06/06 11:02:11.075, True, 3.315, 0.135882
2023/06/06 11:02:11.578, True, 2.986, 0.136110
2023/06/06 11:02:12.075, True, 3.368, 0.134432
2023/06/06 11:02:12.579, True, 2.985, 0.134279
2023/06/06 11:02:13.075, True, 3.037, 0.135424
2023/06/06 11:02:13.578, True, 3.311, 0.135424
2023/06/06 11:02:14.082, True, 3.321, 0.135653
2023/06/06 11:02:14.586, True, 3.315, 0.137865
2023/06/06 11:02:15.082, True, 3.034, 0.137407
2023/06/06 11:02:15.587, True, 3.312, 0.136339
2023/06/06 11:02:16.082, True, 3.032, 0.137255
2023/06/06 11:02:16.586, True, 2.985, 0.136110
2023/06/06 11:02:17.090, True, 3.314, 0.134813
2023/06/06 11:02:17.587, True, 3.371, 0.137179
2023/06/06 11:02:18.091, True, 2.983, 0.136339
2023/06/06 11:02:18.595, True, 3.316, 0.136950
2023/06/06 11:02:19.091, True, 3.032, 0.137102
2023/06/06 11:02:19.595, True, 3.318, 0.133440
2023/06/06 11:02:20.099, True, 2.983, 0.135348
2023/06/06 11:02:20.595, True, 3.032, 0.136110
2023/06/06 11:02:21.098, True, 3.316, 0.136034
2023/06/06 11:02:21.602, True, 3.316, 0.137102
2023/06/06 11:02:22.099, True, 3.032, 0.137102
2023/06/06 11:02:22.602, True, 3.316, 0.137407
2023/06/06 11:02:23.107, True, 3.317, 0.135958
2023/06/06 11:02:23.602, True, 3.032, 0.136797
2023/06/06 11:02:24.107, True, 3.320, 0.135958
2023/06/06 11:02:24.611, True, 2.982, 0.134508
2023/06/06 11:02:25.115, True, 3.315, 0.137789
2023/06/06 11:02:25.611, True, 3.033, 0.135500
2023/06/06 11:02:26.115, True, 2.984, 0.135729
2023/06/06 11:02:26.619, True, 3.316, 0.133440
2023/06/06 11:02:27.115, True, 3.036, 0.137255
2023/06/06 11:02:27.619, True, 3.313, 0.136110
2023/06/06 11:02:28.115, True, 3.033, 0.137179
2023/06/06 11:02:28.619, True, 3.317, 0.135348
2023/06/06 11:02:29.122, True, 3.314, 0.135195
2023/06/06 11:02:29.619, True, 3.038, 0.136645
2023/06/06 11:02:30.122, True, 3.318, 0.137942
2023/06/06 11:02:30.626, True, 2.979, 0.135042
2023/06/06 11:02:31.122, True, 3.368, 0.136187
2023/06/06 11:02:31.627, True, 2.985, 0.135576
2023/06/06 11:02:32.130, True, 2.984, 0.136492
2023/06/06 11:02:32.626, True, 3.370, 0.136873
2023/06/06 11:02:33.131, True, 2.988, 0.135576
2023/06/06 11:02:33.635, True, 3.311, 0.135653
2023/06/06 11:02:34.131, True, 3.033, 0.137102
2023/06/06 11:02:34.634, True, 3.316, 0.134966
2023/06/06 11:02:35.139, True, 3.316, 0.137789
2023/06/06 11:02:35.635, True, 3.033, 0.138170
2023/06/06 11:02:36.139, True, 3.316, 0.135729
2023/06/06 11:02:36.643, True, 2.985, 0.136110
2023/06/06 11:02:37.139, True, 3.369, 0.137331
2023/06/06 11:02:37.642, True, 3.321, 0.134585
2023/06/06 11:02:38.146, True, 2.981, 0.135042
2023/06/06 11:02:38.642, True, 3.368, 0.137865
2023/06/06 11:02:39.146, True, 3.315, 0.133974
2023/06/06 11:02:39.651, True, 3.316, 0.135195
2023/06/06 11:02:40.146, True, 3.035, 0.136263
2023/06/06 11:02:40.651, True, 3.313, 0.136187
2023/06/06 11:02:41.154, True, 3.316, 0.135119
2023/06/06 11:02:41.651, True, 3.370, 0.134127
2023/06/06 11:02:42.155, True, 2.985, 0.135729
2023/06/06 11:02:42.658, True, 3.316, 0.137255
2023/06/06 11:02:43.155, True, 3.032, 0.135729
2023/06/06 11:02:43.658, True, 3.316, 0.134966
2023/06/06 11:02:44.162, True, 3.318, 0.135882
2023/06/06 11:02:44.659, True, 3.369, 0.137026
2023/06/06 11:02:45.162, True, 3.314, 0.135958
2023/06/06 11:02:45.667, True, 2.985, 0.135729
2023/06/06 11:02:46.162, True, 3.368, 0.136263
2023/06/06 11:02:46.666, True, 2.985, 0.136339
2023/06/06 11:02:47.171, True, 3.315, 0.134966
2023/06/06 11:02:47.666, True, 3.374, 0.138933
2023/06/06 11:02:48.170, True, 3.311, 0.135805
2023/06/06 11:02:48.674, True, 3.316, 0.135576
2023/06/06 11:02:49.178, True, 2.984, 0.136492
2023/06/06 11:02:49.674, True, 3.370, 0.134890
2023/06/06 11:02:50.178, True, 3.316, 0.133364
2023/06/06 11:02:50.681, True, 3.316, 0.136568
2023/06/06 11:02:51.178, True, 3.370, 0.137026
2023/06/06 11:02:51.682, True, 3.319, 0.136187
2023/06/06 11:02:52.186, True, 3.313, 0.136416
2023/06/06 11:02:52.683, True, 3.368, 0.135424
2023/06/06 11:02:53.186, True, 2.991, 0.133288
2023/06/06 11:02:53.690, True, 3.312, 0.135882
2023/06/06 11:02:54.194, True, 3.317, 0.133822
2023/06/06 11:02:54.690, True, 3.369, 0.135500
2023/06/06 11:02:55.194, True, 2.982, 0.136110
2023/06/06 11:02:55.698, True, 3.316, 0.137102
2023/06/06 11:02:56.194, True, 3.036, 0.137179
2023/06/06 11:02:56.699, True, 3.315, 0.137179
2023/06/06 11:02:57.202, True, 3.319, 0.135576
2023/06/06 11:02:57.698, True, 3.027, 0.136339
2023/06/06 11:02:58.202, True, 2.986, 0.135576
2023/06/06 11:02:58.706, True, 3.315, 0.135882
2023/06/06 11:02:59.202, True, 3.033, 0.136187
2023/06/06 11:02:59.706, True, 2.989, 0.135500
2023/06/06 11:03:00.210, True, 3.312, 0.133974
2023/06/06 11:03:00.714, True, 2.985, 0.136645
2023/06/06 11:03:01.210, True, 3.368, 0.135271
2023/06/06 11:03:01.714, True, 3.315, 0.135653
2023/06/06 11:03:02.218, True, 2.984, 0.136721
2023/06/06 11:03:02.714, True, 3.370, 0.135348
2023/06/06 11:03:03.218, True, 3.316, 0.137713
2023/06/06 11:03:03.714, True, 3.033, 0.134661
2023/06/06 11:03:04.218, True, 3.318, 0.135348
2023/06/06 11:03:04.722, True, 3.315, 0.135653
2023/06/06 11:03:05.218, True, 3.032, 0.135805
2023/06/06 11:03:05.722, True, 3.316, 0.135042
2023/06/06 11:03:06.226, True, 2.985, 0.135653
2023/06/06 11:03:06.731, True, 3.320, 0.136492
2023/06/06 11:03:07.226, True, 3.029, 0.134737
2023/06/06 11:03:07.730, True, 3.316, 0.133211
2023/06/06 11:03:08.226, True, 3.033, 0.134356
2023/06/06 11:03:08.730, True, 2.988, 0.135500
2023/06/06 11:03:09.234, True, 3.311, 0.134890
2023/06/06 11:03:09.731, True, 3.370, 0.136110
2023/06/06 11:03:10.235, True, 3.321, 0.134051
2023/06/06 11:03:10.738, True, 3.311, 0.136263
2023/06/06 11:03:11.234, True, 3.033, 0.135653
2023/06/06 11:03:11.739, True, 3.316, 0.135958
2023/06/06 11:03:12.242, True, 2.984, 0.137789
2023/06/06 11:03:12.738, True, 3.033, 0.136110
2023/06/06 11:03:13.242, True, 3.316, 0.134279
2023/06/06 11:03:13.746, True, 2.984, 0.134737
2023/06/06 11:03:14.250, True, 3.316, 0.134203
2023/06/06 11:03:14.746, True, 3.375, 0.135882
2023/06/06 11:03:15.250, True, 3.310, 0.135805
2023/06/06 11:03:15.746, True, 3.369, 0.135653
2023/06/06 11:03:16.250, True, 3.317, 0.135576
2023/06/06 11:03:16.754, True, 2.983, 0.136492
2023/06/06 11:03:17.250, True, 3.370, 0.136721
2023/06/06 11:03:17.754, True, 3.317, 0.133822
2023/06/06 11:03:18.258, True, 3.315, 0.135348
2023/06/06 11:03:18.762, True, 2.985, 0.138857
2023/06/06 11:03:19.259, True, 3.035, 0.134890
2023/06/06 11:03:19.762, True, 3.314, 0.133059
2023/06/06 11:03:20.267, True, 3.317, 0.136034
2023/06/06 11:03:20.762, True, 3.368, 0.137026
2023/06/06 11:03:21.266, True, 3.317, 0.136950
2023/06/06 11:03:21.762, True, 3.370, 0.135119
2023/06/06 11:03:22.266, True, 3.316, 0.132753
2023/06/06 11:03:22.770, True, 3.316, 0.134356
2023/06/06 11:03:23.266, True, 3.371, 0.135805
2023/06/06 11:03:23.770, True, 2.983, 0.135348
2023/06/06 11:03:24.274, True, 3.316, 0.135042
2023/06/06 11:03:24.770, True, 3.369, 0.136797
2023/06/06 11:03:25.274, True, 2.984, 0.134203
2023/06/06 11:03:25.778, True, 3.317, 0.135576
2023/06/06 11:03:26.274, True, 3.369, 0.135500
2023/06/06 11:03:26.778, True, 3.321, 0.134508
2023/06/06 11:03:27.282, True, 3.312, 0.133745
2023/06/06 11:03:27.778, True, 3.032, 0.136492
2023/06/06 11:03:28.282, True, 3.648, 0.135576
2023/06/06 11:03:28.787, True, 2.985, 0.135348
2023/06/06 11:03:29.282, True, 3.369, 0.134585
2023/06/06 11:03:29.786, True, 2.985, 0.136873
2023/06/06 11:03:30.290, True, 3.315, 0.135042
2023/06/06 11:03:30.786, True, 3.371, 0.137255
2023/06/06 11:03:31.290, True, 2.983, 0.133669
2023/06/06 11:03:31.794, True, 3.320, 0.134966
2023/06/06 11:03:32.290, True, 3.029, 0.137407
2023/06/06 11:03:32.794, True, 3.316, 0.137102
2023/06/06 11:03:33.298, True, 3.316, 0.133440
2023/06/06 11:03:33.794, True, 3.033, 0.134203
2023/06/06 11:03:34.298, True, 3.316, 0.138094
2023/06/06 11:03:34.802, True, 3.317, 0.135653
2023/06/06 11:03:35.298, True, 3.370, 0.135348
2023/06/06 11:03:35.802, True, 3.316, 0.135576
2023/06/06 11:03:36.299, True, 3.033, 0.135805
2023/06/06 11:03:36.802, True, 3.318, 0.135882
2023/06/06 11:03:37.306, True, 3.314, 0.134890
2023/06/06 11:03:37.802, True, 3.032, 0.134432
2023/06/06 11:03:38.306, True, 2.985, 0.135348
2023/06/06 11:03:38.810, True, 3.315, 0.136187
2023/06/06 11:03:39.306, True, 3.370, 0.135653
2023/06/06 11:03:39.810, True, 3.315, 0.136797
2023/06/06 11:03:40.314, True, 2.985, 0.134813
2023/06/06 11:03:40.810, True, 3.369, 0.135424
2023/06/06 11:03:41.314, True, 3.316, 0.137407
2023/06/06 11:03:41.818, True, 3.316, 0.134585
2023/06/06 11:03:42.314, True, 3.369, 0.136873
2023/06/06 11:03:42.818, True, 3.317, 0.132906
2023/06/06 11:03:43.315, True, 3.032, 0.134661
2023/06/06 11:03:43.818, True, 3.320, 0.134737
2023/06/06 11:03:44.322, True, 2.984, 0.133440
2023/06/06 11:03:44.818, True, 3.366, 0.138476
2023/06/06 11:03:45.322, True, 2.986, 0.136034
2023/06/06 11:03:45.826, True, 3.314, 0.135500
2023/06/06 11:03:46.322, True, 3.369, 0.136797
2023/06/06 11:03:46.826, True, 2.985, 0.134356
2023/06/06 11:03:47.330, True, 3.315, 0.135729
2023/06/06 11:03:47.826, True, 3.033, 0.135042
2023/06/06 11:03:48.330, True, 3.315, 0.135653
2023/06/06 11:03:48.834, True, 3.317, 0.133516
2023/06/06 11:03:49.330, True, 3.370, 0.136873
2023/06/06 11:03:49.834, True, 2.984, 0.136492
2023/06/06 11:03:50.338, True, 3.316, 0.134661
2023/06/06 11:03:50.834, True, 3.032, 0.135500
2023/06/06 11:03:51.338, True, 2.985, 0.132372
2023/06/06 11:03:51.842, True, 2.985, 0.137026
2023/06/06 11:03:52.338, True, 3.369, 0.135729
2023/06/06 11:03:52.842, True, 2.984, 0.134966
2023/06/06 11:03:53.346, True, 3.318, 0.134737
2023/06/06 11:03:53.842, True, 3.030, 0.134279
2023/06/06 11:03:54.346, True, 3.317, 0.134661
2023/06/06 11:03:54.850, True, 2.984, 0.136339
2023/06/06 11:03:55.346, True, 3.033, 0.135653
2023/06/06 11:03:55.850, True, 3.315, 0.136110
2023/06/06 11:03:56.354, True, 2.984, 0.136721
2023/06/06 11:03:56.850, True, 3.370, 0.135195
2023/06/06 11:03:57.354, True, 2.985, 0.135119
2023/06/06 11:03:57.858, True, 3.317, 0.135195
2023/06/06 11:03:58.354, True, 3.369, 0.135653
2023/06/06 11:03:58.858, True, 2.985, 0.136034
2023/06/06 11:03:59.362, True, 3.316, 0.135576
2023/06/06 11:03:59.858, True, 3.373, 0.134966
2023/06/06 11:04:00.362, True, 2.981, 0.136568
2023/06/06 11:04:00.858, True, 3.370, 0.136416
2023/06/06 11:04:01.362, True, 3.316, 0.134585
2023/06/06 11:04:01.866, True, 3.316, 0.133745
2023/06/06 11:04:02.362, True, 3.034, 0.134890
2023/06/06 11:04:02.866, True, 3.315, 0.135882
2023/06/06 11:04:03.370, True, 3.316, 0.136492
2023/06/06 11:04:03.866, True, 3.370, 0.133593
2023/06/06 11:04:04.370, True, 3.317, 0.134508
2023/06/06 11:04:04.874, True, 3.315, 0.134737
2023/06/06 11:04:05.370, True, 3.033, 0.134737
2023/06/06 11:04:05.874, True, 2.984, 0.135882
2023/06/06 11:04:06.378, True, 3.316, 0.135119
2023/06/06 11:04:06.882, True, 2.985, 0.134813
2023/06/06 11:04:07.378, True, 3.369, 0.133669
2023/06/06 11:04:07.882, True, 3.319, 0.134661
2023/06/06 11:04:08.386, True, 3.313, 0.135653
2023/06/06 11:04:08.882, True, 3.033, 0.135729
2023/06/06 11:04:09.386, True, 3.317, 0.135348
2023/06/06 11:04:09.882, True, 3.369, 0.135119
2023/06/06 11:04:10.386, True, 3.316, 0.136416
2023/06/06 11:04:10.890, True, 2.985, 0.135348
2023/06/06 11:04:11.394, True, 3.316, 0.134051
2023/06/06 11:04:11.890, True, 3.033, 0.136187